Time,TemperatureF,DewpointF,PressureIn,WindDirection,WindDirectionDegrees,WindSpeedMPH,WindSpeedGustMPH,Humidity,HourlyPrecipIn,Conditions,Clouds,dailyrainin,SolarRadiationWatts/m^2,SoftwareType,DateUTC
2013-05-24 00:21:00,47.0,30.0,-100.00,SW,222,7.0,18.0,51,0.00,,,0.00,1.000000,,2013-05-24 06:21:00,
2013-05-24 00:32:00,47.0,30.0,-100.00,SW,222,7.0,18.0,51,0.00,,,0.00,1.000000,,2013-05-24 06:32:00,
2013-05-24 00:41:00,47.0,30.0,-100.00,SW,222,7.0,18.0,51,0.00,,,0.00,1.000000,,2013-05-24 06:41:00,
2013-05-24 00:52:00,47.0,30.0,-100.00,SW,222,7.0,18.0,51,0.00,,,0.00,1.000000,,2013-05-24 06:52:00,
2013-05-24 01:22:00,44.0,26.0,-100.00,WSW,246,8.0,23.0,49,0.00,,,0.00,1.000000,,2013-05-24 07:22:00,
2013-05-24 01:31:00,44.0,26.0,-100.00,WSW,246,8.0,23.0,49,0.00,,,0.00,1.000000,,2013-05-24 07:31:00,
2013-05-24 01:42:00,44.0,26.0,-100.00,WSW,246,8.0,23.0,49,0.00,,,0.00,1.000000,,2013-05-24 07:42:00,
2013-05-24 01:52:00,44.0,26.0,-100.00,WSW,246,8.0,23.0,49,0.00,,,0.00,1.000000,,2013-05-24 07:52:00,
2013-05-24 02:22:00,41.0,29.0,-100.00,SSW,205,11.0,19.0,61,0.00,,,0.00,1.000000,,2013-05-24 08:22:00,
2013-05-24 02:32:00,41.0,29.0,-100.00,SSW,205,11.0,19.0,61,0.00,,,0.00,1.000000,,2013-05-24 08:32:00,
2013-05-24 02:41:00,41.0,29.0,-100.00,SSW,205,11.0,19.0,61,0.00,,,0.00,1.000000,,2013-05-24 08:41:00,
2013-05-24 02:51:00,41.0,29.0,-100.00,SSW,205,11.0,19.0,61,0.00,,,0.00,1.000000,,2013-05-24 08:51:00,
2013-05-24 03:21:00,39.0,28.0,-100.00,South,173,8.0,23.0,64,0.00,,,0.00,1.000000,,2013-05-24 09:21:00,
2013-05-24 03:32:00,39.0,28.0,-100.00,South,173,8.0,23.0,64,0.00,,,0.00,1.000000,,2013-05-24 09:32:00,
2013-05-24 03:42:00,39.0,28.0,-100.00,South,173,8.0,23.0,64,0.00,,,0.00,1.000000,,2013-05-24 09:42:00,
2013-05-24 03:52:00,39.0,28.0,-100.00,South,173,8.0,23.0,64,0.00,,,0.00,1.000000,,2013-05-24 09:52:00,
2013-05-24 04:22:00,37.0,27.0,-100.00,SSW,204,11.0,17.0,68,0.00,,,0.00,1.000000,,2013-05-24 10:22:00,
2013-05-24 04:32:00,37.0,27.0,-100.00,SSW,204,11.0,17.0,68,0.00,,,0.00,1.000000,,2013-05-24 10:32:00,
2013-05-24 04:42:00,37.0,27.0,-100.00,SSW,204,11.0,17.0,68,0.00,,,0.00,1.000000,,2013-05-24 10:42:00,
2013-05-24 04:52:00,37.0,27.0,-100.00,SSW,204,11.0,17.0,68,0.00,,,0.00,1.000000,,2013-05-24 10:52:00,
2013-05-24 05:22:00,35.0,26.0,-100.00,SSW,201,8.0,16.0,70,0.00,,,0.00,1.000000,,2013-05-24 11:22:00,
2013-05-24 05:32:00,35.0,26.0,-100.00,SSW,201,8.0,16.0,70,0.00,,,0.00,1.000000,,2013-05-24 11:32:00,
2013-05-24 05:41:00,35.0,26.0,-100.00,SSW,201,8.0,16.0,70,0.00,,,0.00,1.000000,,2013-05-24 11:41:00,
2013-05-24 05:51:00,35.0,26.0,-100.00,SSW,201,8.0,16.0,70,0.00,,,0.00,1.000000,,2013-05-24 11:51:00,
2013-05-24 06:21:00,32.0,26.0,-100.00,SE,137,10.0,13.0,78,0.00,,,0.00,2.000000,,2013-05-24 12:21:00,
2013-05-24 06:32:00,32.0,26.0,-100.00,SE,137,10.0,13.0,78,0.00,,,0.00,2.000000,,2013-05-24 12:32:00,
2013-05-24 06:42:00,32.0,26.0,-100.00,SE,137,10.0,13.0,78,0.00,,,0.00,2.000000,,2013-05-24 12:42:00,
2013-05-24 06:52:00,32.0,26.0,-100.00,SE,137,10.0,13.0,78,0.00,,,0.00,2.000000,,2013-05-24 12:52:00,
2013-05-24 07:21:00,37.0,27.0,-100.00,South,171,11.0,15.0,66,0.00,,,0.00,84.000000,,2013-05-24 13:21:00,
2013-05-24 07:32:00,37.0,27.0,-100.00,South,171,11.0,15.0,66,0.00,,,0.00,84.000000,,2013-05-24 13:32:00,
2013-05-24 07:41:00,37.0,27.0,-100.00,South,171,11.0,15.0,66,0.00,,,0.00,84.000000,,2013-05-24 13:41:00,
2013-05-24 07:52:00,37.0,27.0,-100.00,South,171,11.0,15.0,66,0.00,,,0.00,84.000000,,2013-05-24 13:52:00,
2013-05-24 08:21:00,41.0,24.0,-100.00,South,190,14.0,19.0,50,0.00,,,0.00,261.000000,,2013-05-24 14:21:00,
2013-05-24 08:31:00,41.0,24.0,-100.00,South,190,14.0,19.0,50,0.00,,,0.00,261.000000,,2013-05-24 14:31:00,
2013-05-24 08:42:00,41.0,24.0,-100.00,South,190,14.0,19.0,50,0.00,,,0.00,261.000000,,2013-05-24 14:42:00,
2013-05-24 08:52:00,41.0,24.0,-100.00,South,190,14.0,19.0,50,0.00,,,0.00,261.000000,,2013-05-24 14:52:00,
2013-05-24 09:21:00,44.0,22.0,-100.00,South,180,13.0,20.0,42,0.00,,,0.00,451.000000,,2013-05-24 15:21:00,
2013-05-24 09:32:00,44.0,22.0,-100.00,South,180,13.0,20.0,42,0.00,,,0.00,451.000000,,2013-05-24 15:32:00,
2013-05-24 09:43:00,44.0,22.0,-100.00,South,180,13.0,20.0,42,0.00,,,0.00,451.000000,,2013-05-24 15:43:00,
2013-05-24 09:52:00,44.0,22.0,-100.00,South,180,13.0,20.0,42,0.00,,,0.00,451.000000,,2013-05-24 15:52:00,
2013-05-24 10:22:00,47.0,20.0,-100.00,SSW,196,9.0,20.0,34,0.00,,,0.00,633.000000,,2013-05-24 16:22:00,
2013-05-24 10:32:00,47.0,20.0,-100.00,SSW,196,9.0,20.0,34,0.00,,,0.00,633.000000,,2013-05-24 16:32:00,
2013-05-24 10:42:00,47.0,20.0,-100.00,SSW,196,9.0,20.0,34,0.00,,,0.00,633.000000,,2013-05-24 16:42:00,
2013-05-24 10:52:00,47.0,20.0,-100.00,SSW,196,9.0,20.0,34,0.00,,,0.00,633.000000,,2013-05-24 16:52:00,
2013-05-24 11:22:00,48.0,18.0,-100.00,South,178,12.0,19.0,30,0.00,,,0.00,792.000000,,2013-05-24 17:22:00,
2013-05-24 11:32:00,48.0,18.0,-100.00,South,178,12.0,19.0,30,0.00,,,0.00,792.000000,,2013-05-24 17:32:00,
2013-05-24 11:41:00,48.0,18.0,-100.00,South,178,12.0,19.0,30,0.00,,,0.00,792.000000,,2013-05-24 17:41:00,
2013-05-24 11:52:00,48.0,18.0,-100.00,South,178,12.0,19.0,30,0.00,,,0.00,792.000000,,2013-05-24 17:52:00,
2013-05-24 12:21:00,51.0,18.0,-100.00,South,172,14.0,24.0,27,0.00,,,0.00,910.000000,,2013-05-24 18:21:00,
2013-05-24 12:32:00,51.0,18.0,-100.00,South,172,14.0,24.0,27,0.00,,,0.00,910.000000,,2013-05-24 18:32:00,
2013-05-24 12:41:00,51.0,18.0,-100.00,South,172,14.0,24.0,27,0.00,,,0.00,910.000000,,2013-05-24 18:41:00,
2013-05-24 12:51:00,51.0,18.0,-100.00,South,172,14.0,24.0,27,0.00,,,0.00,910.000000,,2013-05-24 18:51:00,
2013-05-24 13:21:00,53.0,15.0,-100.00,SSW,202,13.0,24.0,22,0.00,,,0.00,979.000000,,2013-05-24 19:21:00,
2013-05-24 13:32:00,53.0,15.0,-100.00,SSW,202,13.0,24.0,22,0.00,,,0.00,979.000000,,2013-05-24 19:32:00,
2013-05-24 13:41:00,53.0,15.0,-100.00,SSW,202,13.0,24.0,22,0.00,,,0.00,979.000000,,2013-05-24 19:41:00,
2013-05-24 13:52:00,53.0,15.0,-100.00,SSW,202,13.0,24.0,22,0.00,,,0.00,979.000000,,2013-05-24 19:52:00,
2013-05-24 14:21:00,56.0,16.0,-100.00,SSW,195,16.0,25.0,20,0.00,,,0.00,993.000000,,2013-05-24 20:21:00,
2013-05-24 14:32:00,56.0,16.0,-100.00,SSW,195,16.0,25.0,20,0.00,,,0.00,993.000000,,2013-05-24 20:32:00,
2013-05-24 14:41:00,56.0,16.0,-100.00,SSW,195,16.0,25.0,20,0.00,,,0.00,993.000000,,2013-05-24 20:41:00,
2013-05-24 14:51:00,56.0,16.0,-100.00,SSW,195,16.0,25.0,20,0.00,,,0.00,993.000000,,2013-05-24 20:51:00,
2013-05-24 15:21:00,57.0,19.0,-100.00,South,187,16.0,27.0,22,0.00,,,0.00,937.000000,,2013-05-24 21:21:00,
2013-05-24 15:32:00,57.0,19.0,-100.00,South,187,16.0,27.0,22,0.00,,,0.00,937.000000,,2013-05-24 21:32:00,
2013-05-24 15:42:00,57.0,19.0,-100.00,South,187,16.0,27.0,22,0.00,,,0.00,937.000000,,2013-05-24 21:42:00,
2013-05-24 15:52:00,57.0,19.0,-100.00,South,187,16.0,27.0,22,0.00,,,0.00,937.000000,,2013-05-24 21:52:00,
2013-05-24 16:22:00,58.0,20.0,-100.00,South,186,17.0,27.0,23,0.00,,,0.00,865.000000,,2013-05-24 22:22:00,
2013-05-24 16:33:00,58.0,20.0,-100.00,South,186,17.0,27.0,23,0.00,,,0.00,865.000000,,2013-05-24 22:33:00,
2013-05-24 16:42:00,58.0,20.0,-100.00,South,186,17.0,27.0,23,0.00,,,0.00,865.000000,,2013-05-24 22:42:00,
2013-05-24 16:52:00,58.0,20.0,-100.00,South,186,17.0,27.0,23,0.00,,,0.00,865.000000,,2013-05-24 22:52:00,
2013-05-24 17:22:00,60.0,16.0,-100.00,SW,218,14.0,25.0,18,0.00,,,0.00,756.000000,,2013-05-24 23:22:00,
2013-05-24 17:32:00,60.0,16.0,-100.00,SW,218,14.0,25.0,18,0.00,,,0.00,756.000000,,2013-05-24 23:32:00,
2013-05-24 17:42:00,60.0,16.0,-100.00,SW,218,14.0,25.0,18,0.00,,,0.00,756.000000,,2013-05-24 23:42:00,
2013-05-24 17:52:00,60.0,16.0,-100.00,SW,218,14.0,25.0,18,0.00,,,0.00,756.000000,,2013-05-24 23:52:00,
2013-05-24 18:21:00,59.0,16.0,-100.00,SSW,207,17.0,27.0,18,0.00,,,0.00,593.000000,,2013-05-25 00:21:00,
2013-05-24 18:32:00,59.0,16.0,-100.00,SSW,207,17.0,27.0,18,0.00,,,0.00,593.000000,,2013-05-25 00:32:00,
2013-05-24 18:41:00,59.0,16.0,-100.00,SSW,207,17.0,27.0,18,0.00,,,0.00,593.000000,,2013-05-25 00:41:00,
2013-05-24 18:51:00,59.0,16.0,-100.00,SSW,207,17.0,27.0,18,0.00,,,0.00,593.000000,,2013-05-25 00:51:00,
2013-05-24 19:22:00,57.0,13.0,-100.00,SSW,211,12.0,26.0,17,0.00,,,0.00,356.000000,,2013-05-25 01:22:00,
2013-05-24 19:32:00,57.0,13.0,-100.00,SSW,211,12.0,26.0,17,0.00,,,0.00,356.000000,,2013-05-25 01:32:00,
2013-05-24 19:41:00,57.0,13.0,-100.00,SSW,211,12.0,26.0,17,0.00,,,0.00,356.000000,,2013-05-25 01:41:00,
2013-05-24 19:52:00,57.0,13.0,-100.00,SSW,211,12.0,26.0,17,0.00,,,0.00,356.000000,,2013-05-25 01:52:00,
2013-05-24 20:21:00,52.0,15.0,-100.00,SW,219,4.0,18.0,23,0.00,,,0.00,59.000000,,2013-05-25 02:21:00,
2013-05-24 20:31:00,52.0,15.0,-100.00,SW,219,4.0,18.0,23,0.00,,,0.00,59.000000,,2013-05-25 02:31:00,
2013-05-24 20:42:00,52.0,15.0,-100.00,SW,219,4.0,18.0,23,0.00,,,0.00,59.000000,,2013-05-25 02:42:00,
2013-05-24 20:51:00,52.0,15.0,-100.00,SW,219,4.0,18.0,23,0.00,,,0.00,59.000000,,2013-05-25 02:51:00,
2013-05-24 21:21:00,42.0,22.0,-100.00,SW,217,3.0,6.0,45,0.00,,,0.00,11.000000,,2013-05-25 03:21:00,
2013-05-24 21:43:00,42.0,22.0,-100.00,SW,217,3.0,6.0,45,0.00,,,0.00,11.000000,,2013-05-25 03:43:00,
2013-05-24 21:53:00,42.0,22.0,-100.00,SW,217,3.0,6.0,45,0.00,,,0.00,11.000000,,2013-05-25 03:53:00,
2013-05-24 22:23:00,40.0,21.0,-100.00,SW,218,2.0,6.0,46,0.00,,,0.00,1.000000,,2013-05-25 04:23:00,
2013-05-24 22:32:00,40.0,21.0,-100.00,SW,218,2.0,6.0,46,0.00,,,0.00,1.000000,,2013-05-25 04:32:00,
2013-05-24 22:43:00,40.0,21.0,-100.00,SW,218,2.0,6.0,46,0.00,,,0.00,1.000000,,2013-05-25 04:43:00,
2013-05-24 22:52:00,40.0,21.0,-100.00,SW,218,2.0,6.0,46,0.00,,,0.00,1.000000,,2013-05-25 04:52:00,
2013-05-24 23:22:00,39.0,22.0,-100.00,WSW,247,1.0,6.0,50,0.00,,,0.00,1.000000,,2013-05-25 05:22:00,
2013-05-24 23:32:00,39.0,22.0,-100.00,WSW,247,1.0,6.0,50,0.00,,,0.00,1.000000,,2013-05-25 05:32:00,
2013-05-24 23:42:00,39.0,22.0,-100.00,WSW,247,1.0,6.0,50,0.00,,,0.00,1.000000,,2013-05-25 05:42:00,
2013-05-24 23:52:00,39.0,22.0,-100.00,WSW,247,1.0,6.0,50,0.00,,,0.00,1.000000,,2013-05-25 05:52:00,